Location: Fontevrault
(47.1823°N, 0.0493°E)
Time: 15:41:55
(UTC+00:00)

In-Cosmos 22 - Pass Details

Date: 16 June 2021
Orbit: 786 x 876 km, 81.2° (Epoch: 04 August)

Event Time Altitude Azimuth Distance (km) Brightness Sun altitude
Exits shadow 21:00:03 - 183° (S) 3,259 6.8 -8.6°
Reaches altitude 10° 21:02:23 10° 181° (S) 2,344 6.1 -8.8°
Maximum altitude 21:07:38 73° 98° (E) 826 4.0 -9.4°
Drops below altitude 10° 21:12:55 10° 15° (NNE) 2,362 7.1 -10.0°
Sets 21:15:18 0° 13° (NNE) 3,301 7.9 -10.2°
